Temp
-9 -9 -9 -10 -10 -11 -11 -11 -11 -11 -11 -11 -11 -12 -11 -11 -11 -11 -11 -12 -12 -12 -11 -10 -10 -10 -11 -11 -11 -12 -12 -11 -11 -11 -11 -11 -12 -12 -12 -12 -12 -12 -12 -12
-9 -9 -11 -11 -11 -11 -11 -11 -11 -11 -11 -11 -11 -11 -11 -11 -11 -11 -11 -12 -13 -13 -12 -11 -11 -11 -11 -11 -11 -12 -12 -11 -11 -11 -12 -12 -12 -12 -12 -12 -12 -12 -12 -13
-9 -11 -11 -11 -11 -11 -11 -11 -11 -11 -12 -12 -12 -12 -12 -12 -12 -12 -12 -13 -13 -13 -12 -12 -12 -12 -12 -12 -11 -12 -12 -11 -12 -12 -12 -12 -12 -13 -13 -13 -13 -13 -13 -13
-11 -12 -11 -10 -11 -12 -12 -12 -12 -12 -12 -12 -12 -11 -11 -12 -12 -13 -13 -13 -13 -13 -13 -13 -12 -13 -12 -12 -11 -11 -11 -11 -12 -12 -12 -13 -13 -13 -14 -13 -13 -13 -14 -14
-11 -10 -10 -11 -11 -11 -11 -11 -11 -11 -12 -11 -11 -12 -12 -12 -12 -13 -12 -13 -13 -12 -12 -13 -13 -13 -12 -12 -12 -11 -12 -11 -12 -12 -12 -13 -13 -14 -14 -14 -14 -15 -15 -16
-11 -12 -12 -12 -12 -12 -12 -12 -12 -12 -12 -12 -12 -12 -11 -13 -13 -13 -12 -12 -13 -13 -13 -12 -12 -13 -13 -13 -12 -12 -11 -12 -11 -12 -12 -12 -12 -13 -14 -14 -15 -16 -16 -16
-11 -12 -13 -12 -11 -12 -12 -12 -11 -12 -13 -13 -12 -12 -13 -12 -12 -12 -12 -11 -13 -12 -13 -13 -13 -13 -13 -14 -14 -14 -13 -13 -13 -12 -13 -13 -13 -14 -15 -15 -16 -16 -16 -17
-12 -12 -13 -13 -13 -12 -12 -13 -13 -12 -12 -13 -13 -13 -14 -13 -13 -13 -12 -13 -13 -13 -13 -14 -14 -14 -14 -14 -13 -13 -13 -14 -14 -14 -14 -14 -15 -15 -15 -15 -16 -16 -16 -17
-12 -12 -13 -12 -13 -12 -13 -13 -14 -13 -13 -13 -13 -13 -13 -13 -13 -13 -13 -13 -14 -14 -14 -15 -14 -14 -14 -14 -14 -14 -15 -14 -14 -14 -13 -14 -15 -16 -16 -16 -16 -17 -16 -17
-13 -11 -12 -13 -13 -13 -12 -13 -13 -14 -13 -13 -13 -14 -13 -13 -14 -13 -13 -14 -14 -14 -14 -14 -14 -14 -14 -14 -15 -15 -14 -14 -14 -14 -15 -16 -17 -17 -17 -17 -17 -17 -17 -17
-11 -11 -12 -13 -13 -12 -13 -13 -13 -13 -14 -14 -14 -14 -14 -14 -14 -14 -14 -14 -14 -14 -14 -15 -15 -15 -14 -15 -14 -14 -14 -15 -15 -16 -16 -17 -18 -18 -18 -17 -17 -17 -17 -17
-12 -12 -12 -12 -13 -13 -12 -13 -14 -14 -13 -14 -15 -14 -15 -14 -14 -14 -13 -14 -14 -14 -14 -14 -15 -15 -15 -15 -15 -15 -15 -16 -17 -17 -17 -17 -17 -18 -17 -17 -17 -17 -17 -17
-12 -12 -12 -12 -13 -13 -13 -14 -13 -14 -14 -14 -15 -15 -15 -15 -15 -15 -14 -14 -14 -14 -15 -15 -15 -15 -14 -15 -15 -16 -17 -17 -16 -17 -17 -17 -17 -17 -17 -17 -17 -17 -17 -17
-13 -13 -12 -12 -13 -13 -13 -13 -14 -14 -15 -15 -15 -15 -15 -14 -15 -15 -14 -14 -15 -15 -15 -15 -16 -15 -15 -16 -16 -17 -17 -17 -17 -17 -17 -16 -16 -17 -17 -17 -18 -17 -17 -18
-13 -13 -13 -13 -13 -13 -14 -14 -14 -15 -15 -15 -15 -15 -15 -15 -15 -15 -15 -16 -16 -15 -15 -16 -16 -15 -16 -16 -17 -17 -17 -17 -17 -17 -17 -17 -18 -18 -18 -18 -18 -18 -18 -18
-13 -13 -13 -13 -13 -13 -13 -14 -14 -14 -15 -15 -15 -15 -15 -15 -15 -16 -16 -16 -16 -15 -16 -16 -16 -16 -16 -17 -17 -17 -18 -18 -18 -18 -18 -18 -18 -18 -18 -18 -18 -18 -18 -18
-14 -13 -13 -13 -13 -14 -14 -14 -14 -15 -15 -15 -16 -16 -16 -16 -17 -16 -16 -16 -15 -16 -16 -15 -16 -17 -17 -17 -17 -18 -18 -18 -18 -18 -18 -18 -18 -18 -18 -18 -18 -18 -18 -18
-14 -14 -14 -14 -14 -14 -14 -14 -14 -15 -15 -15 -16 -17 -17 -16 -16 -16 -15 -15 -16 -16 -16 -16 -17 -18 -18 -18 -18 -18 -18 -18 -18 -18 -19 -19 -19 -19 -19 -18 -18 -18 -18 -18
-14 -14 -14 -14 -14 -14 -14 -14 -15 -15 -15 -15 -16 -16 -16 -17 -16 -15 -15 -15 -16 -16 -16 -17 -17 -18 -18 -18 -18 -19 -19 -18 -19 -19 -19 -19 -19 -19 -19 -18 -18 -18 -18 -18
-15 -15 -14 -15 -15 -15 -15 -15 -16 -16 -16 -16 -15 -16 -16 -16 -16 -15 -15 -16 -16 -16 -17 -18 -18 -18 -19 -19 -19 -19 -19 -19 -19 -19 -19 -19 -19 -19 -19 -19 -19 -19 -19 -19
-15 -15 -15 -16 -16 -15 -15 -15 -16 -16 -16 -16 -15 -16 -16 -16 -15 -15 -15 -15 -16 -17 -18 -18 -19 -19 -19 -19 -20 -20 -20 -20 -20 -20 -20 -20 -20 -20 -20 -20 -20 -20 -20 -19
-16 -16 -16 -16 -16 -16 -15 -15 -16 -16 -17 -17 -16 -17 -16 -16 -16 -16 -16 -16 -17 -17 -18 -18 -19 -19 -19 -20 -20 -20 -20 -20 -20 -20 -20 -20 -20 -20 -20 -20 -20 -20 -20 -19
-16 -16 -17 -16 -16 -16 -15 -16 -16 -16 -16 -17 -18 -17 -16 -16 -16 -16 -16 -17 -18 -18 -18 -18 -19 -19 -20 -20 -20 -20 -20 -21 -21 -21 -21 -21 -21 -20 -21 -20 -20 -20 -19 -19
-16 -16 -16 -16 -16 -16 -16 -16 -16 -16 -17 -18 -17 -16 -16 -16 -16 -17 -18 -18 -18 -18 -18 -19 -19 -20 -20 -20 -20 -21 -21 -21 -22 -22 -22 -21 -21 -21 -21 -20 -20 -19 -19 -19
-16 -16 -17 -17 -17 -16 -17 -17 -18 -18 -18 -18 -17 -16 -16 -16 -17 -17 -18 -18 -18 -18 -18 -19 -20 -20 -20 -21 -21 -21 -22 -22 -22 -22 -21 -21 -21 -21 -21 -20 -19 -19 -19 -19
-16 -17 -16 -17 -18 -16 -17 -17 -18 -18 -18 -17 -17 -16 -17 -17 -17 -18 -18 -18 -18 -18 -19 -19 -20 -20 -21 -21 -21 -21 -22 -22 -22 -21 -21 -21 -21 -21 -20 -20 -19 -20 -20 -20
Height
5884 5884 5883 5883 5882 5882 5884 5884 5885 5883 5882 5882 5880 5881 5878 5877 5877 5875 5874 5872 5864 5859 5857 5854 5854 5856 5854 5852 5851 5849 5842 5838 5835 5832 5828 5823 5817 5811 5804 5797 5791 5784 5779 5774
5881 5880 5878 5879 5880 5879 5880 5880 5881 5881 5880 5880 5877 5875 5877 5872 5870 5869 5868 5867 5860 5855 5851 5849 5846 5846 5845 5844 5843 5840 5836 5830 5826 5822 5817 5811 5804 5797 5792 5785 5778 5770 5764 5757
5877 5877 5875 5875 5876 5877 5877 5875 5874 5877 5874 5872 5871 5869 5872 5873 5868 5862 5860 5858 5853 5851 5847 5844 5842 5840 5837 5834 5832 5830 5824 5821 5818 5812 5804 5796 5791 5786 5778 5769 5763 5757 5749 5739
5875 5873 5871 5873 5873 5871 5872 5868 5868 5870 5867 5866 5865 5862 5864 5862 5861 5857 5851 5851 5848 5845 5843 5840 5837 5833 5829 5824 5819 5818 5814 5811 5805 5800 5793 5786 5782 5775 5765 5756 5749 5741 5731 5722
5871 5869 5869 5870 5866 5866 5867 5863 5863 5863 5863 5861 5863 5857 5854 5854 5851 5846 5842 5841 5839 5838 5834 5834 5830 5825 5820 5815 5812 5806 5802 5796 5792 5788 5783 5778 5771 5764 5754 5743 5732 5723 5712 5702
5868 5866 5865 5865 5864 5862 5860 5860 5857 5856 5856 5855 5852 5846 5846 5844 5838 5830 5829 5833 5833 5833 5831 5828 5822 5816 5811 5806 5799 5793 5787 5783 5778 5773 5766 5760 5755 5745 5736 5725 5716 5707 5696 5687
5863 5862 5858 5858 5860 5858 5855 5851 5851 5850 5849 5847 5844 5838 5838 5836 5827 5828 5824 5825 5823 5823 5819 5816 5812 5806 5800 5795 5790 5784 5778 5770 5764 5756 5748 5741 5734 5726 5716 5706 5698 5689 5682 5674
5860 5861 5856 5852 5852 5851 5852 5849 5847 5843 5845 5845 5840 5834 5831 5831 5831 5826 5825 5822 5819 5817 5814 5810 5806 5800 5793 5786 5781 5773 5765 5761 5754 5745 5736 5727 5719 5710 5700 5691 5683 5676 5669 5663
5856 5855 5852 5850 5847 5847 5847 5846 5843 5839 5839 5839 5840 5832 5827 5827 5825 5825 5821 5821 5817 5811 5808 5803 5797 5788 5783 5778 5772 5767 5758 5749 5739 5730 5721 5712 5701 5691 5682 5675 5668 5663 5657 5653
5849 5847 5849 5845 5844 5843 5840 5840 5837 5835 5833 5833 5834 5826 5821 5820 5817 5813 5813 5812 5810 5807 5801 5793 5788 5783 5779 5772 5767 5757 5745 5734 5724 5713 5702 5692 5682 5673 5667 5662 5656 5652 5649 5646
5843 5843 5845 5842 5838 5835 5835 5833 5830 5829 5828 5827 5826 5825 5820 5815 5812 5810 5807 5802 5799 5796 5791 5786 5782 5776 5767 5758 5748 5739 5728 5717 5707 5696 5687 5677 5669 5662 5657 5651 5648 5644 5642 5639
5838 5836 5836 5837 5833 5831 5829 5830 5827 5823 5823 5823 5819 5817 5812 5805 5805 5802 5800 5794 5791 5788 5783 5778 5771 5764 5754 5746 5737 5728 5718 5706 5694 5684 5676 5668 5660 5654 5647 5644 5641 5638 5636 5633
5833 5831 5830 5831 5828 5825 5824 5823 5821 5818 5816 5815 5813 5811 5802 5797 5795 5793 5786 5783 5782 5780 5776 5771 5764 5752 5743 5736 5724 5713 5702 5691 5682 5675 5667 5659 5652 5645 5641 5639 5635 5632 5630 5627
5828 5827 5824 5824 5823 5818 5818 5816 5816 5811 5809 5808 5805 5802 5794 5791 5789 5784 5780 5778 5777 5770 5765 5761 5750 5739 5731 5721 5710 5700 5690 5681 5674 5666 5658 5651 5645 5640 5637 5633 5630 5627 5624 5621
5823 5821 5820 5818 5816 5814 5810 5809 5808 5804 5802 5799 5796 5793 5787 5783 5781 5780 5778 5774 5766 5760 5756 5746 5735 5727 5718 5707 5696 5688 5680 5673 5666 5659 5652 5645 5640 5636 5632 5629 5626 5622 5619 5616
5813 5814 5813 5813 5810 5807 5805 5803 5800 5796 5793 5794 5786 5779 5780 5777 5776 5772 5768 5763 5758 5754 5745 5736 5727 5717 5705 5695 5686 5678 5671 5665 5659 5653 5647 5642 5637 5633 5629 5625 5621 5618 5615 5612
5808 5804 5804 5805 5803 5801 5799 5795 5792 5787 5784 5782 5780 5774 5770 5770 5770 5765 5760 5759 5754 5745 5734 5723 5713 5701 5692 5683 5676 5670 5664 5658 5653 5647 5642 5636 5633 5628 5624 5620 5617 5613 5611 5607
5802 5798 5795 5795 5794 5795 5789 5788 5785 5781 5777 5775 5774 5770 5767 5765 5762 5757 5754 5751 5742 5730 5719 5710 5699 5689 5680 5674 5668 5662 5657 5652 5646 5641 5636 5631 5627 5624 5620 5616 5612 5609 5605 5602
5794 5792 5790 5788 5787 5787 5783 5779 5778 5775 5772 5769 5768 5764 5763 5757 5751 5747 5745 5738 5728 5717 5708 5697 5687 5679 5672 5667 5661 5655 5650 5645 5639 5635 5630 5626 5622 5618 5614 5610 5607 5604 5601 5599
5785 5785 5785 5782 5779 5777 5776 5773 5770 5768 5766 5765 5760 5759 5756 5752 5746 5742 5736 5728 5717 5707 5694 5687 5679 5673 5667 5661 5655 5649 5644 5638 5632 5627 5622 5619 5615 5611 5609 5607 5604 5602 5600 5598
5780 5778 5777 5775 5773 5771 5768 5767 5764 5763 5762 5755 5753 5751 5748 5742 5738 5731 5723 5714 5704 5693 5686 5679 5673 5667 5660 5654 5648 5643 5637 5631 5626 5621 5616 5612 5609 5607 5605 5603 5601 5599 5597 5596
5774 5773 5771 5769 5767 5766 5765 5761 5759 5755 5752 5752 5748 5746 5741 5735 5729 5722 5713 5704 5694 5685 5679 5673 5667 5661 5655 5649 5642 5637 5632 5627 5621 5617 5613 5609 5606 5604 5602 5600 5599 5598 5597 5596
5767 5769 5765 5764 5761 5760 5759 5758 5751 5748 5747 5746 5743 5740 5736 5729 5723 5714 5705 5696 5688 5681 5675 5668 5662 5656 5650 5644 5638 5633 5627 5622 5617 5613 5610 5607 5604 5603 5601 5600 5599 5599 5598 5596
5761 5762 5759 5757 5754 5754 5752 5751 5748 5743 5742 5741 5738 5735 5729 5723 5715 5707 5697 5690 5683 5678 5671 5664 5658 5652 5646 5640 5634 5629 5624 5618 5614 5610 5606 5605 5603 5601 5600 5601 5601 5600 5599 5596
5756 5757 5755 5751 5750 5746 5745 5743 5740 5738 5737 5734 5733 5728 5722 5715 5708 5699 5692 5686 5681 5674 5668 5662 5656 5649 5643 5637 5630 5625 5620 5616 5612 5608 5606 5604 5603 5602 5602 5602 5601 5600 5599 5597
5752 5751 5749 5748 5745 5742 5741 5739 5738 5736 5732 5732 5727 5722 5716 5709 5701 5695 5690 5685 5679 5672 5666 5660 5654 5647 5639 5633 5626 5622 5618 5614 5610 5607 5605 5604 5603 5604 5603 5602 5601 5602 5602 5601
Wind_Speed
12 12 15 14 12 7 10 16 17 22 23 20 26 26 33 31 41 42 32 30 33 39 41 42 40 32 32 34 33 35 42 45 47 48 51 54 56 57 57 58 60 63 64 65
12 10 11 15 13 14 14 19 23 23 21 24 31 35 31 38 42 40 35 27 30 33 40 43 44 40 38 37 37 39 44 48 50 53 55 55 56 58 59 61 63 65 68 71
12 8 16 20 21 17 19 21 27 19 19 28 31 40 33 29 24 35 35 35 34 36 39 40 41 41 42 43 43 39 46 49 51 51 53 56 58 59 60 63 66 69 72 75
5 10 21 20 22 22 23 26 25 22 28 31 35 40 33 37 24 31 45 42 36 37 40 41 37 45 45 46 41 47 50 51 52 52 54 56 56 58 63 69 71 74 75 75
11 18 19 16 19 20 23 30 29 29 35 38 34 40 42 36 30 39 40 44 34 40 38 37 45 42 46 47 50 53 53 55 52 53 53 55 53 57 64 70 73 72 72 71
12 14 13 15 16 18 23 21 27 27 26 33 30 36 34 34 42 45 25 23 19 32 39 37 39 42 51 53 54 57 57 58 58 57 57 60 63 66 70 71 70 66 66 65
12 10 18 20 19 22 22 24 19 14 16 20 23 26 27 24 28 28 5 18 27 23 43 42 47 56 59 62 62 60 59 60 63 64 68 71 71 73 73 73 66 64 60 55
17 13 20 26 27 25 22 25 26 26 20 19 26 31 28 24 27 31 40 41 38 34 40 47 52 57 61 64 58 59 61 61 65 68 72 74 74 72 68 64 58 55 50 43
20 17 24 25 27 24 22 19 22 26 23 22 19 28 33 27 28 24 31 34 38 41 42 49 55 62 61 59 58 59 63 68 70 73 76 77 73 66 61 56 51 45 37 38
27 24 17 24 26 27 28 23 22 25 27 25 18 30 36 37 35 42 43 38 40 43 49 55 54 54 54 55 56 61 66 70 74 77 77 71 65 59 55 50 46 37 34 30
27 24 16 20 24 27 25 31 24 22 16 24 29 28 33 33 37 43 44 45 46 49 50 49 53 52 54 58 62 66 71 75 75 71 64 59 54 49 46 41 36 32 27 25
25 26 22 19 22 24 24 24 29 29 34 30 29 31 37 45 45 46 47 47 44 45 46 50 49 53 58 61 65 69 72 68 63 56 52 45 43 43 38 32 29 24 24 25
23 24 23 18 24 23 24 21 24 29 32 29 30 25 36 39 40 39 44 45 44 45 45 43 48 56 60 64 69 70 63 59 53 45 43 43 40 32 28 25 22 21 23 26
24 22 24 23 22 26 24 27 24 26 31 33 33 32 36 38 38 44 49 50 47 41 42 46 53 61 64 67 66 60 53 48 41 39 38 34 30 25 21 21 20 21 24 27
22 22 25 25 26 24 26 27 30 31 35 30 34 32 35 41 37 46 41 43 42 43 48 55 61 66 68 65 58 51 45 38 36 36 33 29 25 22 20 20 21 23 24 23
30 28 28 22 26 28 28 26 29 31 31 33 40 44 42 42 42 40 38 38 41 46 53 58 62 68 65 55 49 44 36 34 33 31 29 27 25 24 24 24 25 25 22 22
33 35 34 29 30 28 27 25 29 33 34 34 31 37 39 36 41 39 38 37 42 50 56 61 66 60 52 48 42 35 33 33 30 29 29 28 27 27 25 23 22 21 22 26
32 36 35 33 31 26 31 29 28 29 35 33 31 32 34 35 36 37 37 41 49 57 62 65 57 50 48 41 35 33 33 31 32 31 27 26 24 24 26 26 25 25 25 25
31 29 26 26 25 24 29 32 26 22 33 35 23 30 33 33 37 40 43 50 57 61 64 56 49 45 40 34 33 33 33 34 32 31 32 33 32 29 27 26 23 21 18 18
24 26 28 26 28 30 26 25 26 27 30 28 34 37 31 31 36 41 48 55 59 61 52 48 45 37 33 32 32 33 33 34 34 33 30 26 24 21 19 17 17 17 17 18
27 30 28 26 27 27 27 25 28 25 28 37 35 32 29 34 38 46 53 60 60 51 45 42 34 31 31 32 32 33 31 29 25 22 21 21 20 18 17 16 14 13 14 15
26 23 28 29 27 25 24 25 26 26 28 32 32 24 32 36 44 51 57 59 48 42 37 31 30 29 30 29 28 22 23 23 23 22 18 14 12 11 10 9 9 10 12 14
24 24 27 27 28 29 29 30 38 31 41 41 24 29 31 42 48 54 54 44 38 31 29 28 28 27 27 24 23 22 23 21 21 20 16 14 12 8 6 7 8 11 13 15
20 19 23 25 26 24 24 26 30 36 35 21 24 26 38 43 49 49 39 35 27 27 28 29 26 26 23 24 22 19 19 20 20 19 16 11 10 7 7 8 11 11 12 15
19 18 19 23 25 28 27 27 26 25 19 22 22 35 40 45 45 37 33 25 25 25 27 25 25 23 22 22 21 17 19 19 16 15 12 9 8 7 8 9 10 11 12 14
19 19 24 22 22 26 25 24 17 18 20 23 31 36 42 41 35 30 23 23 23 25 24 23 22 25 24 21 20 15 18 16 14 11 10 7 8 9 9 9 10 13 14 13
Wind_Direction
277 275 265 263 275 298 211 248 250 260 280 290 288 283 281 283 292 295 293 288 286 289 293 295 299 297 291 289 291 294 292 292 293 297 299 299 298 298 296 296 296 295 296 297
280 274 299 297 289 267 277 256 242 248 271 276 270 277 280 286 292 291 287 282 278 289 296 298 300 301 298 295 294 294 292 292 296 300 300 299 296 295 298 298 298 298 299 299
300 242 252 265 279 275 270 274 249 245 270 274 268 264 271 273 288 284 279 286 276 281 290 296 301 302 300 299 297 288 289 296 299 300 298 296 297 302 300 298 298 300 299 297
288 231 261 283 288 271 261 260 251 229 233 248 256 277 275 283 264 269 266 265 274 282 287 291 301 304 298 295 290 292 298 297 297 297 298 297 299 301 299 299 301 300 299 298
267 264 294 298 282 287 266 264 281 265 246 259 270 273 273 273 263 264 250 261 258 268 277 290 295 297 296 296 296 298 299 299 299 297 295 297 299 295 298 300 301 302 301 300
271 278 275 297 306 306 301 287 271 274 264 264 271 266 278 270 267 257 260 273 271 274 281 295 300 300 306 307 304 305 301 302 302 302 302 302 302 304 305 303 303 303 302 304
313 288 283 294 302 297 304 310 302 278 241 265 276 313 320 313 315 260 154 230 296 281 300 302 304 308 308 306 305 301 302 306 310 310 308 306 307 307 305 303 306 305 308 310
317 290 279 290 292 296 302 299 301 290 269 281 286 298 301 291 282 286 294 282 288 288 298 303 300 300 299 298 301 306 308 310 308 304 303 305 302 301 300 300 302 304 308 311
307 288 279 284 283 297 297 295 286 285 285 282 282 282 284 301 287 282 277 294 292 298 296 297 299 296 298 303 306 309 306 304 303 303 303 302 304 304 302 306 306 307 311 312
299 297 279 275 280 283 287 296 269 269 283 287 268 266 273 283 289 297 297 296 293 293 296 297 297 298 300 301 302 301 303 303 304 305 307 308 307 305 305 307 303 308 311 308
293 297 293 279 274 291 287 284 268 275 272 283 285 274 273 276 284 284 284 289 293 292 291 293 299 302 303 305 306 307 308 309 309 309 310 309 308 305 305 302 303 307 305 305
287 290 290 285 272 278 286 288 288 291 285 285 287 287 281 279 281 279 280 284 287 291 297 305 306 306 304 306 307 307 308 311 312 313 314 314 310 308 307 304 302 303 303 303
287 291 293 291 286 283 283 276 282 281 290 290 287 287 294 288 286 291 285 287 293 304 303 303 306 305 305 310 310 311 313 312 314 315 314 313 312 310 308 301 302 304 303 302
289 293 293 297 290 290 283 282 282 293 287 288 285 286 280 286 280 277 281 286 303 301 302 308 307 305 312 312 312 314 314 314 314 316 317 316 317 312 307 307 304 305 308 309
279 287 291 294 295 288 284 283 278 272 276 277 291 271 273 279 277 289 298 299 297 304 310 307 306 309 311 313 313 316 315 314 314 313 314 320 319 316 313 308 304 306 310 312
293 291 285 291 295 295 292 294 288 281 282 262 273 277 266 268 289 303 297 298 304 307 305 303 304 309 313 313 315 314 312 314 318 320 323 323 321 320 317 313 310 311 311 314
294 292 292 295 296 296 297 288 284 279 278 280 273 283 283 287 295 294 295 302 303 304 305 308 313 314 315 316 313 311 313 316 318 320 320 317 320 317 317 319 317 312 314 313
289 287 291 297 295 296 297 300 295 290 287 289 286 280 278 290 297 294 303 311 310 310 312 315 315 316 315 314 312 314 315 314 314 314 317 317 316 314 311 310 307 309 312 312
293 285 294 296 294 297 298 299 294 291 295 285 284 288 304 303 302 305 313 312 313 312 316 316 316 316 315 314 316 315 313 312 313 313 309 306 305 306 307 306 309 311 314 323
287 289 295 300 299 300 298 291 294 291 287 276 279 294 303 301 303 307 309 311 311 318 317 316 316 316 314 315 315 312 310 310 309 308 306 307 305 307 312 313 315 321 332 334
283 293 294 304 298 293 295 296 300 280 285 286 290 303 306 304 306 306 312 314 321 316 313 315 317 316 317 317 315 314 316 318 318 319 317 308 301 299 300 302 308 324 328 346
283 288 292 292 288 287 293 287 264 267 281 291 298 306 304 308 308 313 314 321 319 318 316 316 314 318 321 320 321 324 326 330 328 326 326 322 325 326 329 333 353 359 4 8
279 278 287 287 286 285 285 285 286 290 299 309 307 298 305 302 308 311 320 318 320 322 316 316 321 321 323 326 327 331 333 335 330 324 315 320 326 337 343 355 10 24 23 14
283 283 285 293 293 298 296 292 292 288 297 298 300 297 300 306 311 320 319 320 322 318 324 325 325 327 333 330 329 340 340 341 339 334 327 319 332 2 16 30 39 36 24 14
282 290 289 285 301 302 311 316 300 298 296 297 295 299 308 312 319 321 322 323 323 327 328 332 336 337 337 338 336 339 343 346 338 338 341 336 9 38 49 51 45 31 31 38
293 285 287 297 295 298 305 307 287 288 288 291 299 307 313 319 321 322 325 326 330 332 339 341 343 351 349 339 332 338 349 349 347 360 13 38 59 67 65 57 61 79 74 66